| time (UTC) | temp F | wind direction | speed MPH | gust MPH | rain 1hr in | rain 24hr in | rain mn in | humidity % | barometer mb |
| 20260905203023 | 101 | 163 | 4.0 | 9.0 | 0.00 | 0.00 | 0.00 | 28 | 1008.3 |
| 20260905201522 | 100 | 58 | 1.0 | 5.0 | 0.00 | 0.00 | 0.00 | 28 | 1008.6 |
| 20260905200022 | 102 | 226 | 3.0 | 8.0 | 0.00 | 0.00 | 0.00 | 27 | 1008.7 |
| 20260905194521 | 102 | 233 | 3.0 | 6.0 | 0.00 | 0.00 | 0.00 | 26 | 1008.9 |
| 20260905193020 | 102 | 158 | 0.0 | 7.0 | 0.00 | 0.00 | 0.00 | 26 | 1009.1 |
| 20260905191521 | 101 | 238 | 3.0 | 6.0 | 0.00 | 0.00 | 0.00 | 27 | 1009.3 |
| 20260905190028 | 100 | 81 | 0.0 | 4.0 | 0.00 | 0.00 | 0.00 | 27 | 1009.6 |
| 20260905184519 | 101 | 57 | 1.0 | 6.0 | 0.00 | 0.00 | 0.00 | 27 | 1009.8 |
| 20260905183018 | 102 | 173 | 1.0 | 4.0 | 0.00 | 0.00 | 0.00 | 26 | 1010.0 |
| 20260905181516 | 99 | 259 | 0.0 | 3.0 | 0.00 | 0.00 | 0.00 | 28 | 1010.1 |
| 20260905180019 | 99 | 236 | 1.0 | 4.0 | 0.00 | 0.00 | 0.00 | 28 | 1010.2 |
| 20260905174514 | 98 | 246 | 0.0 | 3.0 | 0.00 | 0.00 | 0.00 | 30 | 1010.2 |
| 20260905173013 | 100 | 325 | 0.0 | 3.0 | 0.00 | 0.00 | 0.00 | 28 | 1010.2 |
| 20260905171515 | 101 | 96 | 0.0 | 2.0 | 0.00 | 0.00 | 0.00 | 27 | 1010.2 |
| 20260905170012 | 98 | 172 | 0.0 | 1.0 | 0.00 | 0.00 | 0.00 | 29 | 1010.3 |
| 20260905164507 | 95 | 356 | 0.0 | 3.0 | 0.00 | 0.00 | 0.00 | 30 | 1010.2 |
| 20260905163007 | 95 | 56 | 0.0 | 4.0 | 0.00 | 0.00 | 0.00 | 32 | 1010.2 |
| 20260905161507 | 96 | 102 | 0.0 | 2.0 | 0.00 | 0.00 | 0.00 | 32 | 1010.1 |
| 20260905160006 | 95 | 235 | 0.0 | 1.0 | 0.00 | 0.00 | 0.00 | 33 | 1010.3 |
| 20260905154605 | 94 | 106 | 0.0 | 2.0 | 0.00 | 0.00 | 0.00 | 35 | 1010.2 |
| 20260905153056 | 92 | 122 | 0.0 | 2.0 | 0.00 | 0.00 | 0.00 | 38 | 1010.0 |
| 20260905151552 | 90 | 210 | 1.0 | 2.0 | 0.00 | 0.00 | 0.00 | 42 | 1010.0 |
| 20260905150051 | 89 | 128 | 0.0 | 2.0 | 0.00 | 0.00 | 0.00 | 43 | 1009.9 |
| 20260905144547 | 89 | 149 | 0.0 | 2.0 | 0.00 | 0.00 | 0.00 | 44 | 1009.9 |